Regional Weather Roundup
Issued by NWS Kansas City/Pleasant Hill, MO

Home | Current Version | Previous Version | Graphics & Text | Print | Product List | Glossary Off
Versions: 1 2 3 4 5 6 7 8 9 10 11 12 13 14 15 16 17 18 19 20 21 22 23 24 25 26 27 28 29 30 31 32 33 34 35 36 37 38 39 40 41 42 43 44 45 46 47 48 49 50

000
ASUS43 KEAX 272110
RWREAX

WEATHER ROUNDUP FOR EASTERN KANSAS AND NORTHWEST MISSOURI
NATIONAL WEATHER SERVICE KANSAS CITY/PLEASANT HILL MO
400 PM CDT MON MAR 27 2017

KSZ040-057-103>105-MOZ028-029-037-043-272200-
...KANSAS CITY METROPOLITAN AREA...

CITY           SKY/WX    TMP DP  RH WIND       PRES   REMARKS
K.C. INTL      CLOUDY    52  48  86 N13       29.92S
K.C. DOWNTOWN  CLOUDY    54  48  80 N9        29.91S
LEES SUMMIT    CLOUDY    53  49  86 N12       29.91S
OLATHE - IXD   CLOUDY    51  47  86 N13       29.92S
OLATHE - OJC   CLOUDY    51  48  89 N10       29.91S
LAWRENCE       CLOUDY    56  48  74 N8        29.93R

$$

MOZ001>008-011>017-020>025-030>033-038>040-044>046-053-054-272200-
...NORTHERN AND CENTRAL MISSOURI...

CITY           SKY/WX    TMP DP  RH WIND       PRES   REMARKS
ST. JOSEPH     CLOUDY    54  48  80 N12       29.93F
MOSBY          CLOUDY    52  45  76 N12       29.91F
WARRENSBURG    CLOUDY    50  46  87 NW12      29.90S
WHITEMAN AFB   DRIZZLE   52  52 100 N12       29.89R
CLINTON        CLOUDY    54  50  87 N12       29.90R
SEDALIA        CLOUDY    53  51  93 NW10      29.89R
WARSAW         NOT AVBL
CHILLICOTHE      N/A     51  46  83 N10G17    29.93R
KIRKSVILLE     CLOUDY    51  48  89 N13       29.91R

$$

MOZ041-047>049-056>058-063>065-088>090-097-272200-
...EASTERN AND SOUTHERN MISSOURI...

CITY           SKY/WX    TMP DP  RH WIND       PRES   REMARKS
ST. LOUIS INTL CLOUDY    56  52  86 N10       29.83S
SPIRIT OF STL  CLOUDY    57  54  89 N6        29.82S FOG
COLUMBIA       CLOUDY    54  54 100 NE5       29.85R FOG
JEFFERSON CITY CLOUDY    58  53  84 E5        29.84R
ROLLA          CLOUDY    60  55  83 N10       29.81S
OSAGE BEACH    CLOUDY   N/A N/A N/A NW9G16    29.86R
SPRINGFIELD    CLOUDY    57  51  80 W12       29.87R
BRANSON        PTSUNNY   63  54  72 W8G16     29.86R
JOPLIN         CLOUDY    52  50  93 NW8       29.92R
WEST PLAINS    PTSUNNY   66  56  70 W9        29.83R

$$

IAZ060-094-KSZ022-034>040-054-083-096-NEZ052-066-093-272200-
...KANSAS...SOUTHEAST NEBRASKA AND IOWA...

CITY           SKY/WX    TMP DP  RH WIND       PRES   REMARKS
TOPEKA         CLOUDY    55  48  77 NE7       29.94R
MANHATTAN      CLOUDY    56  46  69 VRB5      29.95S
EMPORIA        CLOUDY    53  48  83 N7        29.94S
CHANUTE        CLOUDY    55  47  74 N8        29.93S
WICHITA        CLOUDY    53  46  77 N8        29.94S
OMAHA          CLOUDY    51  40  65 NE6       29.95F
LINCOLN        CLOUDY    54  40  59 MISG      29.97S
FALLS CITY     CLOUDY    54  44  69 NE8       29.94S
LAMONI         CLOUDY    50  44  80 N8        29.93S
DES MOINES     CLOUDY    51  42  71 N6        29.95S

$$




USA.gov is the U.S. government's official web portal to all federal, state and local government web resources and services.